SCP
0 0 0 1 2 2 1 0 1 1 1 0 1 2 2 2 2 2 1 1 2 2 3 3 3 3 2 2 2 2 1 1 1 1 1 1 1 1 1 2 3 3 2 2 2 2 2 2 2
0 0 1 2 2 1 0 0 0 1 1 1 1 2 2 2 2 2 2 2 2 2 3 3 3 3 3 3 2 2 2 2 1 1 1 1 1 1 1 1 2 2 2 2 1 1 1 1 1
0 1 2 2 1 0 0 0 0 0 1 1 2 2 1 1 1 1 2 2 2 3 3 3 3 3 3 3 3 3 2 2 2 2 2 2 1 1 1 1 2 2 2 1 1 1 1 1 1
0 1 2 2 1 0 0 0 0 1 1 1 2 2 1 1 1 2 2 2 3 3 3 3 3 3 3 4 3 3 2 2 2 2 2 2 1 1 1 1 1 1 1 1 1 1 1 1 1
0 1 1 1 0 0 0 0 0 1 1 2 2 2 2 2 2 2 2 3 3 3 4 3 3 3 3 3 3 2 2 2 2 2 2 2 1 1 1 1 1 1 1 1 1 1 1 1 1
0 0 0 0 0 0 0 0 0 1 1 2 2 2 2 2 2 2 2 3 3 3 4 3 3 3 3 3 3 2 2 2 2 2 2 1 1 1 1 1 1 1 1 1 1 1 1 1 1
0 0 0 0 0 0 0 0 1 2 2 2 1 1 2 2 2 2 2 2 3 3 3 3 3 3 3 3 3 2 2 2 2 2 2 1 1 1 1 1 1 1 1 1 1 1 1 1 1
0 0 0 0 0 0 0 1 1 2 2 2 2 2 2 1 1 1 2 2 2 2 2 3 3 2 2 2 2 2 2 2 2 2 2 2 1 1 1 1 1 1 1 1 1 1 1 1 1
0 0 0 0 0 0 1 2 2 2 2 2 3 2 2 2 1 1 2 2 2 2 2 2 2 2 2 2 2 2 2 2 2 2 2 2 1 1 1 1 1 1 1 1 1 1 1 1 1
0 0 0 0 0 0 1 2 2 1 1 2 3 3 2 2 1 2 2 3 3 2 2 3 3 3 3 3 3 2 2 2 2 2 2 2 2 1 1 1 1 1 1 2 2 2 1 1 1
0 0 0 0 0 1 1 2 2 1 2 2 3 3 2 2 2 2 3 4 4 3 3 4 4 5 4 4 3 2 2 2 2 2 2 2 2 2 1 1 2 2 2 2 2 1 1 1 1
0 0 0 0 0 1 1 1 1 2 2 2 2 3 3 2 2 2 3 4 4 3 3 3 5 6 6 5 3 3 3 2 2 3 3 3 2 2 2 2 2 2 2 2 2 1 1 1 1
0 0 0 0 0 1 1 1 1 2 2 2 3 4 3 2 2 2 3 4 4 3 3 3 5 7 8 6 4 3 3 3 3 3 3 3 3 2 2 2 3 3 3 2 2 2 2 2 2
0 0 0 0 0 1 1 1 1 2 2 3 3 3 3 2 2 3 4 5 5 5 5 6 8 10 10 7 4 3 3 2 2 2 3 3 3 3 3 3 3 3 3 2 2 2 2 3 4
0 0 0 0 0 0 1 1 2 2 3 3 3 3 3 3 3 3 4 6 7 8 10 10 11 12 10 7 5 3 3 2 2 2 2 3 3 3 3 3 3 4 3 3 3 2 2 3 5
0 0 0 0 0 0 1 2 3 4 4 3 3 3 3 3 3 3 4 7 10 13 15 13 11 11 10 8 5 4 3 2 2 2 2 2 2 2 3 3 3 4 3 3 2 2 2 3 5
0 0 0 0 0 0 1 2 3 5 4 3 3 3 3 3 3 3 5 9 13 17 17 14 11 10 10 8 6 4 3 3 3 3 3 3 3 3 3 3 3 4 3 2 2 1 1 2 3
0 0 0 0 0 0 1 2 3 5 5 3 3 2 3 3 3 4 6 9 13 16 16 13 12 12 10 8 6 5 4 4 4 4 4 4 3 3 3 4 4 3 3 2 2 1 1 2 2
0 0 0 0 0 0 1 2 3 5 5 4 3 2 2 3 4 6 7 9 12 15 15 13 13 13 11 9 7 6 5 5 5 5 4 4 4 4 4 4 4 3 3 2 2 1 1 1 1
0 0 0 0 0 1 1 2 3 5 6 5 3 3 3 3 5 8 10 11 13 14 15 14 13 12 10 8 7 6 5 5 6 5 5 5 4 4 4 4 3 2 2 2 2 1 1 1 1
0 0 0 0 1 1 2 2 4 5 6 5 4 3 3 3 5 8 10 12 13 14 15 13 12 10 8 7 6 5 5 4 4 5 5 5 5 4 3 3 2 2 2 2 2 2 1 1 1
0 0 0 0 1 1 2 3 4 5 5 5 4 4 3 3 5 7 9 10 11 13 14 12 11 10 8 6 5 5 4 3 3 4 5 5 4 3 3 2 2 2 1 1 2 2 1 2 2
0 0 0 1 1 1 1 2 3 4 4 4 4 4 3 3 4 6 8 8 9 11 12 11 10 9 6 5 5 5 4 4 4 5 5 4 3 3 2 2 2 2 1 1 1 1 1 1 2
0 1 1 1 1 1 1 1 2 2 3 3 4 4 4 3 4 6 8 8 8 9 10 9 8 7 5 5 4 4 4 4 5 5 5 4 3 3 3 2 2 2 1 1 1 1 1 1 1
0 1 1 1 0 1 1 1 2 3 3 3 4 4 4 4 4 6 7 7 8 8 8 7 6 5 5 4 4 4 4 4 4 5 5 5 4 4 3 3 2 2 1 1 1 1 1 1 1
0 0 1 0 0 0 1 2 3 4 5 5 4 4 4 4 5 5 6 7 8 8 7 6 5 5 4 4 4 4 4 4 4 4 4 5 5 5 4 3 3 2 1 1 1 1 2 1 1
0 0 0 1 1 0 1 2 3 4 5 5 4 4 4 4 5 5 5 8 10 10 7 6 5 5 4 4 4 4 4 4 4 4 4 5 5 5 4 4 3 2 1 1 1 2 2 1 1
0 0 0 1 1 1 1 2 2 3 4 4 4 4 3 4 5 5 7 11 12 10 7 6 5 5 4 4 3 4 4 5 5 5 5 5 5 5 4 3 3 2 2 1 1 1 2 1 1
0 0 1 1 1 1 1 1 3 4 5 4 4 3 4 5 6 7 10 13 12 9 6 6 6 6 5 4 4 5 6 6 6 5 5 5 5 5 4 3 2 2 2 1 1 1 1 1 1
0 0 1 1 1 1 1 2 4 6 6 5 3 3 4 6 8 10 12 12 9 7 5 5 6 7 6 5 4 6 8 8 7 6 5 5 5 5 4 3 2 2 2 1 1 1 1 1 1
Wind_Speed
8 11 10 8 7 7 4 3 6 8 8 9 9 9 10 12 10 9 7 11 15 17 14 13 12 12 11 11 11 10 10 10 10 9 9 8 8 8 8 7 7 8 7 7 7 7 6 6 5
10 12 10 7 8 5 1 3 7 8 8 7 8 7 9 12 12 11 10 11 15 16 13 13 13 12 11 11 11 10 10 10 10 9 8 7 7 7 7 7 7 7 7 6 6 6 5 5 4
12 15 8 7 8 3 3 4 7 6 6 5 6 7 8 8 10 9 9 12 14 15 14 14 14 13 12 11 10 10 10 10 9 9 7 6 6 6 6 6 6 6 6 5 5 5 4 4 3
9 8 7 8 8 1 3 4 5 4 4 4 6 8 9 9 9 10 10 12 15 15 15 14 14 13 12 11 10 10 10 9 9 8 7 6 5 5 6 5 6 6 5 4 4 4 4 3 3
10 7 9 9 8 2 4 4 3 4 3 5 8 10 10 11 13 12 9 11 14 14 14 14 13 13 12 11 10 10 10 9 9 8 7 6 6 5 5 5 5 5 5 4 3 3 3 3 3
8 7 9 8 7 2 4 4 3 4 4 4 7 10 9 11 11 10 9 10 13 14 14 13 13 13 12 12 11 10 10 9 9 8 7 6 6 6 5 5 5 5 3 3 3 2 2 3 3
10 10 11 10 7 2 2 4 1 3 4 4 4 9 10 12 11 10 9 10 12 13 13 11 12 11 12 12 11 10 10 9 8 8 7 6 5 5 5 5 5 4 3 3 2 2 2 2 3
10 9 12 10 7 2 3 4 2 3 4 3 3 7 10 12 11 10 9 9 11 11 10 10 10 10 11 10 11 11 10 9 8 7 6 5 5 6 6 6 5 5 4 4 3 3 4 4 4
13 10 9 9 5 1 1 3 3 4 5 4 6 9 15 16 13 11 9 9 8 9 9 8 8 8 8 9 11 11 10 8 7 7 7 6 5 6 6 7 7 7 6 6 5 4 5 5 6
11 9 9 7 5 2 2 1 2 3 4 6 8 12 16 14 12 11 10 10 9 8 8 7 7 6 6 6 7 6 6 7 5 4 5 4 2 2 4 8 9 9 8 7 7 7 6 6 4
12 12 9 8 6 3 3 2 2 2 2 3 8 13 14 13 11 10 9 9 9 8 6 7 7 5 5 4 4 3 3 4 5 4 3 2 1 2 3 3 5 6 7 5 5 6 4 4 3
13 11 10 9 7 5 5 3 3 1 2 5 8 11 12 12 11 9 9 9 8 8 7 6 6 5 4 3 2 2 2 3 2 4 2 1 1 0 1 1 1 2 2 3 2 2 3 2 1
12 12 11 11 9 6 6 5 5 2 4 6 10 11 10 10 9 9 9 8 8 8 7 6 6 5 4 3 1 2 2 2 3 3 2 1 1 0 1 0 0 1 1 2 2 1 1 1 1
12 12 12 12 9 8 8 7 6 4 6 7 9 11 11 10 9 8 9 7 7 7 6 5 5 6 4 3 1 1 1 2 3 2 2 1 1 1 0 0 0 0 0 0 0 0 1 1 1
12 14 13 12 10 10 8 8 9 6 8 8 9 10 10 9 9 8 9 8 8 7 6 5 5 6 4 3 1 2 1 2 2 2 2 1 1 1 0 0 0 0 0 0 0 0 0 1 1
13 15 14 13 13 11 11 9 7 7 9 9 10 10 10 9 9 8 9 8 8 8 6 5 5 6 5 3 1 1 1 2 2 2 2 1 1 0 1 0 0 1 0 0 0 0 0 0 1
15 15 15 12 13 11 11 9 6 6 8 9 8 9 10 10 9 8 9 8 8 8 7 6 4 6 5 3 2 2 2 2 2 1 1 1 1 1 0 0 1 1 0 0 1 0 0 1 1
12 14 13 12 10 9 9 7 6 8 8 8 9 9 10 10 9 9 9 10 9 8 7 6 5 5 4 4 2 2 2 1 2 2 2 1 1 1 0 1 0 1 0 0 0 1 1 1 1
16 14 14 11 7 8 8 7 9 9 8 7 8 9 9 9 10 11 10 10 10 8 8 7 6 5 4 3 2 2 2 1 1 2 2 2 1 1 0 1 0 1 1 1 1 1 1 2 1
17 17 16 11 7 7 8 8 7 6 7 7 8 8 9 9 10 10 11 10 10 9 8 8 6 6 4 3 2 2 2 1 2 1 2 2 1 1 1 1 1 1 1 1 1 1 1 1 0
17 16 14 11 9 10 8 8 8 7 6 6 8 8 8 9 10 10 11 10 11 10 9 8 7 6 5 4 2 2 2 1 1 1 2 1 1 1 0 1 1 1 1 2 2 1 1 1 1
14 13 13 12 10 9 10 9 7 6 6 6 7 8 8 9 10 10 10 10 9 10 10 8 7 6 5 4 3 3 2 2 1 1 1 1 1 2 2 1 1 1 1 1 2 1 1 1 1
14 12 12 13 11 11 11 9 5 6 7 8 7 6 8 9 10 10 10 10 9 9 9 8 7 6 5 4 4 3 2 2 1 1 2 2 2 2 2 2 1 1 1 1 1 1 1 1 1
12 11 11 11 10 12 12 10 6 5 7 8 8 7 8 9 9 10 10 9 8 9 9 9 8 6 5 5 4 3 3 2 2 2 2 2 2 2 2 2 2 2 1 1 1 1 1 1 1
11 9 7 8 8 10 10 8 4 3 3 7 9 8 8 8 9 9 10 10 9 9 9 9 9 7 6 5 4 3 3 3 3 3 3 2 2 2 2 2 2 2 2 2 2 2 2 2 2
10 11 9 8 8 8 8 7 3 4 4 7 9 7 8 8 8 8 9 9 9 9 8 8 8 7 7 5 4 4 3 3 2 2 2 2 1 1 2 2 2 2 3 3 2 2 2 2 2
12 12 11 10 13 10 7 4 4 5 6 7 8 8 7 7 7 7 6 7 8 8 8 7 7 6 6 6 5 4 4 3 2 2 2 1 1 2 2 2 3 2 2 2 2 2 2 2 2
13 11 7 8 9 10 8 4 4 7 7 7 7 7 7 7 6 5 5 6 6 6 7 6 6 6 5 5 4 4 3 2 2 2 2 2 2 2 2 2 2 2 2 3 2 2 2 3 2
12 12 9 7 8 7 6 2 2 5 6 7 7 6 7 7 6 5 5 5 5 6 6 6 5 5 5 5 4 3 3 3 2 2 2 2 2 2 2 3 2 2 2 2 2 2 3 3 2
10 11 10 7 7 6 6 1 3 5 5 6 7 6 7 7 7 6 6 5 5 4 5 4 4 4 3 3 3 3 3 2 2 2 2 2 2 3 3 3 3 3 3 3 3 3 3 3 2
Wind_Direction
230 236 231 244 244 245 284 27 56 60 64 56 46 50 57 52 57 91 106 102 106 113 118 114 109 108 107 107 108 110 112 111 110 110 110 112 113 114 116 117 114 111 110 109 108 108 102 97 97
252 246 239 243 254 255 333 44 65 61 66 72 64 64 72 69 76 98 105 107 111 114 117 114 112 110 110 110 110 113 113 112 110 109 109 113 112 113 118 121 120 115 112 112 113 111 103 97 95
260 259 259 248 257 284 50 55 73 79 75 76 82 67 61 71 78 95 113 122 114 114 114 114 116 113 111 112 112 113 114 113 114 114 113 114 118 118 118 122 122 118 116 118 120 116 108 105 104
254 240 238 254 271 304 94 87 82 88 89 86 90 84 75 68 90 107 125 124 115 116 117 121 122 119 117 115 116 117 116 115 117 118 119 119 120 123 124 126 123 118 115 118 125 120 118 117 122
243 255 251 261 262 233 115 97 104 84 66 78 91 93 91 87 99 113 123 119 117 117 118 127 129 129 126 123 121 123 121 120 119 120 122 126 129 131 128 132 127 124 122 126 126 119 128 132 151
250 254 266 272 272 232 114 101 108 110 98 93 107 109 105 114 114 123 123 118 117 119 120 129 134 136 134 132 128 129 128 125 125 127 128 131 133 131 137 138 129 125 128 134 129 133 134 145 165
255 274 276 277 276 255 115 114 111 97 88 83 99 113 121 125 125 132 128 120 116 118 125 135 141 141 138 136 135 135 135 136 139 141 141 143 145 141 136 129 134 138 150 163 163 172 181 183 197
259 275 284 284 278 275 129 121 117 83 79 70 97 112 130 131 136 133 130 124 122 123 128 136 141 145 151 146 146 146 146 149 155 158 159 161 166 165 159 153 159 165 170 170 177 187 198 200 214
257 262 266 273 278 283 208 155 129 110 114 90 68 93 126 137 141 143 138 129 122 122 131 140 144 151 154 149 147 154 156 157 161 169 179 182 187 180 177 168 174 181 185 189 194 200 209 209 217
241 254 262 279 310 304 261 173 166 171 151 133 112 110 127 140 148 156 152 144 138 135 139 142 142 146 148 142 144 158 162 158 173 162 177 192 192 168 151 156 178 184 191 201 206 213 218 220 217
244 253 271 281 283 306 299 279 254 221 178 136 139 136 142 149 155 156 145 138 136 139 136 138 138 133 130 125 148 159 163 155 171 155 172 176 175 154 139 159 172 188 196 208 199 207 219 215 205
253 260 272 280 290 282 277 272 254 189 136 138 130 142 149 157 159 156 146 142 142 139 134 123 120 124 118 119 141 153 146 146 146 133 139 159 175 126 116 140 180 188 187 196 190 207 207 216 206
253 260 260 260 259 259 269 266 257 198 133 122 137 147 162 164 160 151 143 139 134 134 134 129 127 118 109 101 105 118 125 132 119 124 143 155 136 97 107 131 211 214 189 188 202 205 189 225 233
268 263 263 260 254 248 250 260 258 213 148 147 153 158 171 165 159 148 139 137 137 134 126 123 124 118 109 106 96 104 115 116 120 117 122 125 93 78 55 110 193 309 46 63 247 182 194 210 238
275 272 265 257 247 241 237 242 243 203 162 167 172 169 167 165 158 152 146 150 145 139 130 134 132 116 114 114 112 105 103 106 100 108 112 105 87 89 278 219 193 269 243 153 123 301 255 206 217
257 257 252 244 240 227 228 241 226 197 181 175 178 173 169 162 163 155 149 146 141 138 136 142 140 128 130 130 134 108 94 100 110 115 110 115 130 97 290 242 327 334 338 90 157 135 258 215 237
241 243 247 241 230 226 226 240 207 191 189 182 182 177 174 165 164 159 155 146 140 140 144 147 138 134 142 141 138 131 122 110 117 119 124 157 154 135 190 102 11 285 168 99 268 142 325 299 281
247 247 245 243 224 227 234 234 212 194 202 187 181 184 181 173 169 163 155 146 144 144 147 151 144 137 146 141 146 139 133 135 136 136 144 157 171 143 244 130 41 285 137 102 1 332 258 276 260
262 265 266 258 232 232 240 242 235 207 205 189 185 182 181 175 168 158 152 150 148 146 149 149 149 146 148 144 165 162 159 155 144 150 137 149 151 135 210 102 172 256 159 170 223 255 252 237 235
257 259 260 256 244 247 247 243 250 221 205 185 189 186 180 172 158 152 153 157 154 153 152 152 159 156 156 150 161 163 157 191 163 136 139 154 142 146 178 107 198 241 170 167 241 258 280 269 215
253 258 263 264 260 252 248 248 245 233 212 186 189 185 181 174 159 155 160 164 161 158 157 161 162 155 159 152 155 156 156 175 142 156 149 150 159 160 189 153 190 230 208 180 204 236 246 278 275
254 256 265 265 261 260 248 252 232 200 195 181 181 179 173 166 158 157 159 163 163 159 158 151 150 152 157 157 165 178 176 175 189 167 145 156 191 192 191 174 186 208 227 201 221 193 247 252 266
255 261 264 271 261 266 263 258 235 196 198 183 177 175 166 160 158 159 159 158 159 158 155 148 149 152 157 164 173 185 186 177 161 156 163 178 203 214 200 180 181 197 217 205 233 187 237 242 250
262 263 261 260 259 255 254 258 243 217 197 169 161 165 156 153 149 154 155 156 156 153 151 149 152 157 161 173 180 185 185 184 190 183 183 192 197 210 211 193 181 192 197 200 210 209 211 228 242
248 254 254 251 247 251 252 246 229 173 151 153 150 154 148 149 153 154 157 161 158 156 155 155 155 163 171 179 185 189 191 199 200 197 194 201 203 206 201 196 187 197 201 200 200 199 211 215 227
242 243 248 260 260 260 250 234 175 121 108 114 125 137 142 145 150 153 156 156 159 159 157 158 159 168 174 180 186 188 192 207 206 207 211 209 216 203 181 181 194 208 213 204 196 194 206 202 215
246 241 246 260 273 270 244 178 145 115 111 114 123 124 125 136 136 140 146 152 151 155 157 160 162 170 179 182 180 184 190 206 200 201 220 205 203 201 176 187 197 213 218 203 206 197 211 206 205
242 251 252 253 267 273 266 234 179 157 145 137 128 129 124 114 114 124 133 136 136 141 146 152 160 170 179 181 183 180 182 191 188 198 201 210 207 191 182 190 198 203 214 211 207 198 208 202 196
226 235 246 253 260 267 280 282 100 146 144 140 135 131 130 128 120 113 112 115 120 129 143 151 160 170 177 179 174 171 174 184 190 205 215 216 203 197 205 200 202 209 204 205 204 209 207 202 194
245 239 236 243 260 268 274 254 103 114 123 131 132 132 125 117 115 116 118 121 127 132 130 135 151 168 172 165 162 161 163 173 194 202 215 224 210 211 211 198 196 214 208 198 206 218 205 196 192